Regional Weather Roundup
Issued by NWS

Home | Current Version | Previous Version | Text Only | Print | Product List | Glossary Off
Versions: 1 2 3 4 5 6 7 8 9 10 11 12 13 14 15 16 17 18 19 20 21 22 23 24 25 26 27 28 29 30 31 32 33 34 35 36 37 38 39 40 41 42 43 44 45 46 47 48 49 50

000
ASUS43 KLMK 272302
RWRKY
KENTUCKY REGIONAL WEATHER ROUNDUP
NATIONAL WEATHER SERVICE LOUISVILLE KY
700 PM EDT WED MAY 27 2015

NOTE "FAIR" INDICATES FEW OR NO CLOUDS BELOW 12,000 FEET
WITH NO SIGNIFICANT WEATHER AND/OR OBSTRUCTIONS TO VISIBILITY.

KYZ001>023-026-027-061>063-070>075-280000-
WESTERN AND SOUTH CENTRAL KENTUCKY

CITY           SKY/WX    TMP DP  RH WIND       PRES   REMARKS
PADUCAH        CLOUDY    76  65  68 SW6       30.08S
HENDERSON      CLOUDY    75  63  64 SW7       30.07S
OWENSBORO      PTSUNNY   74  66  75 S9        30.10S
HOPKINSVILLE   CLOUDY    73  67  83 S6        30.12R
BOWLING GREEN  PTSUNNY   77  65  66 S8        30.13S
GLASGOW        NOT AVBL
$$

KYZ024-025-028>034-038-045-046-053-280000-
NORTH CENTRAL KENTUCKY

CITY           SKY/WX    TMP DP  RH WIND       PRES   REMARKS
LOUISVILLE/SDF CLOUDY    72  63  73 S9        30.11S
LOUISVILLE/LOU CLOUDY    71  63  75 S5        30.12S
FORT KNOX      PTSUNNY   71  64  79 S7        30.10F
$$

KYZ035>037-039>044-047>052-055>060-089>105-280000-
NORTHEAST KENTUCKY

CITY           SKY/WX    TMP DP  RH WIND       PRES   REMARKS
LEXINGTON      LGT RAIN  65  62  90 S12       30.13F
COVINGTON      CLOUDY    76  60  57 SW14G25   30.11R
FRANKFORT      CLOUDY    67  63  87 S6        30.13F
$$

KYZ054-064>069-076>088-106>120-280000-
SOUTHEAST KENTUCKY

CITY           SKY/WX    TMP DP  RH WIND       PRES   REMARKS
JACKSON        MOSUNNY   77  62  59 CALM      30.18F
LONDON         CLOUDY    79  60  52 W13G20    30.19S
SOMERSET       NOT AVBL
MIDDLESBORO    PTSUNNY   80  64  58 S3        30.17F
MONTICELLO     CLOUDY    65  65 100 E8        30.23F FOG
$$



USA.gov is the U.S. government's official web portal to all federal, state and local government web resources and services.